This is the latest recevied weather packets stored in our database for station/object HB9FHL-13. If no packets are shown the sender has not sent any weather packets the latest 10 day(s).
| Time | Temp. | Humidity | Pressure | Rain* | Wind** | Luminosity | Snow |
|---|---|---|---|---|---|---|---|
| 1787835376 | 27.22° C | - | 1014.4 hPa | 0 mm | - | - | - |
| 1787835082 | 26.11° C | - | 1013.2 hPa | 0 mm | - | - | - |
| 1787835076 | 26.11° C | - | 1013.2 hPa | 0 mm | - | - | - |
| 1787834775 | 26.11° C | - | 1016.2 hPa | 0 mm | - | - | - |
| 1787834479 | 26.11° C | - | 1012.5 hPa | 0 mm | - | - | - |
| 1787834474 | 26.11° C | - | 1012.5 hPa | 0 mm | - | - | - |
| 1787834179 | 26.11° C | - | 1005.9 hPa | 0 mm | - | - | - |
| 1787834174 | 26.11° C | - | 1005.9 hPa | 0 mm | - | - | - |
| 1787833882 | 26.11° C | - | 1013.9 hPa | 0 mm | - | - | - |
| 1787833874 | 26.11° C | - | 1013.9 hPa | 0 mm | - | - | - |
| 1787833575 | 26.67° C | - | 1013.8 hPa | 0 mm | - | - | - |
| 1787833276 | 26.11° C | - | 1013.5 hPa | 0 mm | - | - | - |
| 1787833271 | 26.11° C | - | 1013.5 hPa | 0 mm | - | - | - |
| 1787832977 | 26.67° C | - | 1015 hPa | 0 mm | - | - | - |
| 1787832976 | 26.67° C | - | 1015 hPa | 0 mm | - | - | - |
| 1787832670 | 25.56° C | - | 1012.4 hPa | 0 mm | - | - | - |
| 1787832372 | 26.67° C | - | 1012.2 hPa | 0 mm | - | - | - |
| 1787832369 | 26.67° C | - | 1012.2 hPa | 0 mm | - | - | - |
| 1787832109 | 26.11° C | - | 1015.8 hPa | 0 mm | - | - | - |
| 1787832068 | 26.11° C | - | 1015.8 hPa | 0 mm | - | - | - |
| 1787831772 | 26.11° C | - | 1013.6 hPa | 0 mm | - | - | - |
| 1787831768 | 26.11° C | - | 1013.6 hPa | 0 mm | - | - | - |
| 1787831470 | 26.11° C | - | 1018.4 hPa | 0 mm | - | - | - |
| 1787831467 | 26.11° C | - | 1018.4 hPa | 0 mm | - | - | - |
| 1787831167 | 25.56° C | - | 1013.9 hPa | 0 mm | - | - | - |
* Rain since midnight (hover to see other rain measurements)
** Current wind speed in m/s (hover to see current wind gust speed)